MAU288 FIMP-FMMI

Flight info

Callsign MAU288
Flight time 1h 34m
Altitude 40000
Route RASMA1 RASMA UA400 TE TE1B
Aircraft A359/H-SDE2E3GHIJ3J4J5LM1ORWXY/LB1D1

Departure

Time 2026-05-05 16:54
Airport Sir Seewoosagur Ramgoolam International Airport (FIMP)

Arrival

Time 2026-05-05 18:28
Airport Ivato International Airport (FMMI)
Time Latitude Longitude Altitude Speed Heading
2026-05-05 16:32 -20.43091 57.67708 193 ft 0 kts 207°
2026-05-05 16:45 -20.43072 57.67718 209 ft 4 kts 206°
2026-05-05 16:45 -20.43048 57.67731 207 ft 4 kts 205°
2026-05-05 16:46 -20.43027 57.67742 207 ft 4 kts 228°
2026-05-05 16:46 -20.43021 57.67763 207 ft 4 kts 293°
2026-05-05 16:46 -20.43031 57.67785 207 ft 1 kts 297°
2026-05-05 16:46 -20.43032 57.67786 207 ft 0 kts 297°
2026-05-05 16:48 -20.43031 57.67785 207 ft 3 kts 297°
2026-05-05 16:49 -20.43004 57.67730 207 ft 7 kts 298°
2026-05-05 16:49 -20.42976 57.67676 207 ft 10 kts 304°
2026-05-05 16:49 -20.42923 57.67634 207 ft 10 kts 330°
2026-05-05 16:49 -20.42861 57.67594 204 ft 0 kts 326°
2026-05-05 16:50 -20.42814 57.67558 204 ft 8 kts 323°
2026-05-05 16:50 -20.42765 57.67518 208 ft 1 kts 323°
2026-05-05 16:52 -20.42703 57.67483 206 ft 15 kts 340°
2026-05-05 16:52 -20.42678 57.67473 209 ft 3 kts 339°
2026-05-05 16:52 -20.42630 57.67467 202 ft 3 kts 31°
2026-05-05 16:53 -20.42625 57.67521 209 ft 10 kts 105°
2026-05-05 16:53 -20.42634 57.67541 206 ft 2 kts 119°
2026-05-05 16:53 -20.42638 57.67549 211 ft 1 kts 116°
2026-05-05 16:53 -20.42651 57.67578 211 ft 17 kts 117°
2026-05-05 16:54 -20.42834 57.67959 201 ft 97 kts 117°
2026-05-05 16:54 -20.43254 57.68827 176 ft 164 kts 118°
2026-05-05 16:54 -20.43816 57.69936 822 ft 168 kts 115°
2026-05-05 16:54 -20.44366 57.71055 1606 ft 180 kts 115°
2026-05-05 16:55 -20.44948 57.72331 2054 ft 202 kts 114°
2026-05-05 16:55 -20.45374 57.73845 2426 ft 229 kts 92°
2026-05-05 16:55 -20.44878 57.75496 3087 ft 243 kts 56°
2026-05-05 16:55 -20.43776 57.76908 3875 ft 252 kts 49°
2026-05-05 16:56 -20.42588 57.78293 4821 ft 253 kts 49°
2026-05-05 16:56 -20.41381 57.79689 5655 ft 260 kts 46°
2026-05-05 16:56 -20.39898 57.80851 6470 ft 268 kts 31°
2026-05-05 16:56 -20.38176 57.81655 7347 ft 274 kts 19°
2026-05-05 16:57 -20.36256 57.81874 8193 ft 284 kts 355°
2026-05-05 16:57 -20.34413 57.81148 9081 ft 294 kts 326°
2026-05-05 16:57 -20.33099 57.79466 9974 ft 299 kts 293°
2026-05-05 16:57 -20.32649 57.77307 10730 ft 308 kts 274°
2026-05-05 16:58 -20.32517 57.74940 11110 ft 331 kts 272°
2026-05-05 16:58 -20.32407 57.72420 11575 ft 348 kts 272°
2026-05-05 16:58 -20.32267 57.69815 12234 ft 355 kts 273°
2026-05-05 16:58 -20.32105 57.67173 12991 ft 360 kts 273°
2026-05-05 16:59 -20.31930 57.64475 13647 ft 368 kts 273°
2026-05-05 16:59 -20.31745 57.61741 14297 ft 372 kts 274°
2026-05-05 16:59 -20.31556 57.58977 14926 ft 376 kts 273°
2026-05-05 16:59 -20.31363 57.56192 15627 ft 377 kts 273°
2026-05-05 17:00 -20.31167 57.53386 16323 ft 380 kts 273°
2026-05-05 17:00 -20.30973 57.50609 17020 ft 381 kts 273°
2026-05-05 17:00 -20.30774 57.47789 17736 ft 383 kts 272°
2026-05-05 17:00 -20.30575 57.44953 18410 ft 385 kts 272°
2026-05-05 17:01 -20.30372 57.42092 18997 ft 389 kts 272°
2026-05-05 17:01 -20.30169 57.39210 19593 ft 392 kts 272°
2026-05-05 17:01 -20.29963 57.36298 20224 ft 395 kts 273°
2026-05-05 17:01 -20.29754 57.33363 20872 ft 398 kts 273°
2026-05-05 17:02 -20.29543 57.30407 21515 ft 401 kts 273°
2026-05-05 17:02 -20.29330 57.27427 22138 ft 405 kts 273°
2026-05-05 17:02 -20.29117 57.24464 22775 ft 408 kts 273°
2026-05-05 17:02 -20.28899 57.21434 23452 ft 412 kts 273°
2026-05-05 17:03 -20.28679 57.18375 24055 ft 415 kts 273°
2026-05-05 17:03 -20.28458 57.15310 24676 ft 416 kts 274°
2026-05-05 17:03 -20.28234 57.12228 25318 ft 417 kts 273°
2026-05-05 17:03 -20.28009 57.09133 25931 ft 420 kts 273°
2026-05-05 17:04 -20.27784 57.06043 26644 ft 418 kts 273°
2026-05-05 17:04 -20.27558 57.02939 27167 ft 423 kts 273°
2026-05-05 17:04 -20.27329 56.99803 27687 ft 427 kts 274°
2026-05-05 17:04 -20.27097 56.96642 28232 ft 430 kts 274°
2026-05-05 17:05 -20.26864 56.93461 28812 ft 432 kts 274°
2026-05-05 17:05 -20.26630 56.90296 29359 ft 434 kts 274°
2026-05-05 17:05 -20.26392 56.87073 29874 ft 438 kts 274°
2026-05-05 17:05 -20.26152 56.83830 30323 ft 441 kts 274°
2026-05-05 17:06 -20.25910 56.80563 30828 ft 441 kts 274°
2026-05-05 17:06 -20.25666 56.77291 31303 ft 443 kts 274°
2026-05-05 17:06 -20.25422 56.74014 31736 ft 445 kts 274°
2026-05-05 17:06 -20.25176 56.70724 32153 ft 447 kts 274°
2026-05-05 17:07 -20.24931 56.67452 32567 ft 449 kts 274°
2026-05-05 17:07 -20.24681 56.64133 32968 ft 451 kts 274°
2026-05-05 17:07 -20.24427 56.60753 33379 ft 453 kts 274°
2026-05-05 17:07 -20.24177 56.57443 33764 ft 455 kts 274°
2026-05-05 17:08 -20.23922 56.54078 34122 ft 457 kts 274°
2026-05-05 17:08 -20.23665 56.50692 34400 ft 460 kts 274°
2026-05-05 17:08 -20.23406 56.47288 34662 ft 462 kts 274°
2026-05-05 17:08 -20.23145 56.43872 35034 ft 462 kts 274°
2026-05-05 17:09 -20.22884 56.40463 35415 ft 461 kts 274°
2026-05-05 17:09 -20.22622 56.37053 35779 ft 461 kts 274°
2026-05-05 17:09 -20.22360 56.33638 36144 ft 461 kts 274°
2026-05-05 17:09 -20.22097 56.30236 36499 ft 461 kts 274°
2026-05-05 17:10 -20.21834 56.26831 36838 ft 461 kts 274°
2026-05-05 17:10 -20.21570 56.23426 37187 ft 461 kts 274°
2026-05-05 17:10 -20.21306 56.20024 37530 ft 460 kts 274°
2026-05-05 17:10 -20.21042 56.16630 37872 ft 460 kts 274°
2026-05-05 17:11 -20.20780 56.13277 38197 ft 460 kts 274°
2026-05-05 17:11 -20.20514 56.09880 38518 ft 459 kts 274°
2026-05-05 17:11 -20.20248 56.06488 38816 ft 459 kts 273°
2026-05-05 17:11 -20.19982 56.03101 39063 ft 459 kts 273°
2026-05-05 17:12 -20.19662 55.99722 39299 ft 459 kts 275°
2026-05-05 17:12 -20.19238 55.96350 39529 ft 460 kts 277°
2026-05-05 17:12 -20.18769 55.92987 39755 ft 460 kts 277°
2026-05-05 17:12 -20.18289 55.89622 39987 ft 460 kts 277°
2026-05-05 17:13 -20.17353 55.82876 40065 ft 460 kts 277°
2026-05-05 17:13 -20.16456 55.76121 40068 ft 461 kts 276°
2026-05-05 17:14 -20.15578 55.69409 40072 ft 461 kts 276°
2026-05-05 17:14 -20.14693 55.62652 40070 ft 461 kts 276°
2026-05-05 17:15 -20.13803 55.55894 40070 ft 461 kts 276°
2026-05-05 17:15 -20.12907 55.49132 40070 ft 461 kts 276°
2026-05-05 17:16 -20.12114 55.43465 40072 ft 462 kts 277°
2026-05-05 17:16 -20.11152 55.36753 40073 ft 462 kts 277°
2026-05-05 17:17 -20.10186 55.29991 40071 ft 462 kts 277°
2026-05-05 17:17 -20.09224 55.23222 40074 ft 462 kts 277°
2026-05-05 17:18 -20.08263 55.16459 40072 ft 462 kts 277°
2026-05-05 17:18 -20.07299 55.09695 40078 ft 462 kts 277°
2026-05-05 17:19 -20.06332 55.02935 40079 ft 462 kts 277°
2026-05-05 17:19 -20.05367 54.96219 40081 ft 462 kts 277°
2026-05-05 17:20 -20.04394 54.89453 40079 ft 462 kts 277°
2026-05-05 17:20 -20.03419 54.82698 40081 ft 462 kts 277°
2026-05-05 17:21 -20.02440 54.75935 40080 ft 462 kts 277°
2026-05-05 17:22 -20.00972 54.65823 40077 ft 463 kts 277°
2026-05-05 17:22 -19.99990 54.59064 40082 ft 463 kts 277°
2026-05-05 17:23 -19.99001 54.52292 40083 ft 463 kts 277°
2026-05-05 17:23 -19.98006 54.45506 40081 ft 465 kts 277°
2026-05-05 17:24 -19.97005 54.38699 40082 ft 465 kts 277°
2026-05-05 17:24 -19.96010 54.31945 40080 ft 465 kts 277°
2026-05-05 17:25 -19.95007 54.25148 40079 ft 465 kts 277°
2026-05-05 17:25 -19.94000 54.18342 40079 ft 465 kts 277°
2026-05-05 17:26 -19.92990 54.11544 40078 ft 466 kts 277°
2026-05-05 17:26 -19.91977 54.04750 40081 ft 466 kts 277°
2026-05-05 17:27 -19.90962 53.97951 40084 ft 465 kts 277°
2026-05-05 17:27 -19.89945 53.91159 40083 ft 465 kts 277°
2026-05-05 17:28 -19.88927 53.84376 40083 ft 465 kts 277°
2026-05-05 17:28 -19.87905 53.77589 40083 ft 465 kts 277°
2026-05-05 17:29 -19.86887 53.70841 40081 ft 465 kts 277°
2026-05-05 17:29 -19.85860 53.64055 40084 ft 465 kts 277°
2026-05-05 17:30 -19.84830 53.57262 40112 ft 468 kts 277°
2026-05-05 17:30 -19.83786 53.50392 40277 ft 474 kts 277°
2026-05-05 17:30 -19.83258 53.46930 40423 ft 475 kts 277°
2026-05-05 17:31 -19.82729 53.43463 40610 ft 476 kts 277°
2026-05-05 17:31 -19.82199 53.39995 40797 ft 476 kts 277°
2026-05-05 17:31 -19.81667 53.36522 40991 ft 476 kts 277°
2026-05-05 17:31 -19.81135 53.33055 41183 ft 476 kts 277°
2026-05-05 17:32 -19.80609 53.29628 41373 ft 476 kts 277°
2026-05-05 17:32 -19.80076 53.26158 41560 ft 475 kts 277°
2026-05-05 17:32 -19.79543 53.22694 41751 ft 475 kts 277°
2026-05-05 17:32 -19.79010 53.19236 41925 ft 475 kts 277°
2026-05-05 17:33 -19.78476 53.15769 42062 ft 475 kts 277°
2026-05-05 17:33 -19.77405 53.08839 42084 ft 474 kts 277°
2026-05-05 17:34 -19.76334 53.01928 42079 ft 474 kts 277°
2026-05-05 17:34 -19.75259 52.95010 42087 ft 474 kts 277°
2026-05-05 17:35 -19.74188 52.88132 42083 ft 474 kts 277°
2026-05-05 17:35 -19.73109 52.81222 42080 ft 475 kts 277°
2026-05-05 17:36 -19.72026 52.74310 42084 ft 475 kts 277°
2026-05-05 17:36 -19.70942 52.67403 42086 ft 474 kts 277°
2026-05-05 17:37 -19.69854 52.60492 42080 ft 474 kts 277°
2026-05-05 17:37 -19.68763 52.53575 42081 ft 474 kts 277°
2026-05-05 17:38 -19.67678 52.46713 42078 ft 474 kts 277°
2026-05-05 17:38 -19.66583 52.39815 42076 ft 474 kts 277°
2026-05-05 17:39 -19.65485 52.32903 42087 ft 474 kts 277°
2026-05-05 17:39 -19.64384 52.26001 42078 ft 474 kts 277°
2026-05-05 17:40 -19.63279 52.19087 42081 ft 475 kts 277°
2026-05-05 17:40 -19.62172 52.12177 42078 ft 475 kts 277°
2026-05-05 17:41 -19.61065 52.05281 42085 ft 475 kts 278°
2026-05-05 17:41 -19.59959 51.98411 42075 ft 475 kts 277°
2026-05-05 17:42 -19.58845 51.91514 42091 ft 475 kts 278°
2026-05-05 17:42 -19.57728 51.84607 42084 ft 475 kts 278°
2026-05-05 17:43 -19.56609 51.77708 42076 ft 475 kts 277°
2026-05-05 17:43 -19.55487 51.70808 42077 ft 475 kts 278°
2026-05-05 17:44 -19.54361 51.63905 42077 ft 475 kts 278°
2026-05-05 17:44 -19.53232 51.56996 42085 ft 475 kts 278°
2026-05-05 17:45 -19.52109 51.50142 42081 ft 475 kts 278°
2026-05-05 17:45 -19.50977 51.43248 42075 ft 475 kts 278°
2026-05-05 17:46 -19.49843 51.36358 42073 ft 475 kts 278°
2026-05-05 17:46 -19.48703 51.29452 42077 ft 475 kts 278°
2026-05-05 17:47 -19.47562 51.22554 42089 ft 475 kts 278°
2026-05-05 17:47 -19.46417 51.15654 42091 ft 475 kts 278°
2026-05-05 17:48 -19.45277 51.08792 42075 ft 475 kts 278°
2026-05-05 17:48 -19.44127 51.01893 42073 ft 475 kts 278°
2026-05-05 17:49 -19.42972 50.94979 42071 ft 475 kts 278°
2026-05-05 17:49 -19.41834 50.88182 42080 ft 475 kts 278°
2026-05-05 17:50 -19.40676 50.81282 42084 ft 475 kts 278°
2026-05-05 17:50 -19.39524 50.74433 42083 ft 475 kts 278°
2026-05-05 17:51 -19.38360 50.67530 42086 ft 475 kts 278°
2026-05-05 17:51 -19.37195 50.60641 42083 ft 475 kts 278°
2026-05-05 17:52 -19.36029 50.53757 42082 ft 475 kts 278°
2026-05-05 17:52 -19.34859 50.46872 42082 ft 475 kts 278°
2026-05-05 17:53 -19.33686 50.39980 42077 ft 475 kts 278°
2026-05-05 17:53 -19.32518 50.33135 42077 ft 475 kts 278°
2026-05-05 17:54 -19.31340 50.26246 42081 ft 475 kts 278°
2026-05-05 17:54 -19.30158 50.19352 42072 ft 475 kts 278°
2026-05-05 17:55 -19.28973 50.12457 42076 ft 475 kts 278°
2026-05-05 17:55 -19.27794 50.05618 42080 ft 475 kts 278°
2026-05-05 17:56 -19.26604 49.98737 42081 ft 475 kts 278°
2026-05-05 17:56 -19.25412 49.91855 42080 ft 475 kts 278°
2026-05-05 17:57 -19.24218 49.84979 42078 ft 475 kts 278°
2026-05-05 17:57 -19.23021 49.78099 42079 ft 475 kts 278°
2026-05-05 17:58 -19.21820 49.71218 42077 ft 475 kts 278°
2026-05-05 17:58 -19.20619 49.64344 42077 ft 475 kts 278°
2026-05-05 17:59 -19.19412 49.57458 42071 ft 475 kts 278°
2026-05-05 17:59 -19.18211 49.50620 42068 ft 475 kts 278°
2026-05-05 18:00 -19.17001 49.43745 42069 ft 475 kts 278°
2026-05-05 18:00 -19.15786 49.36860 42069 ft 475 kts 278°
2026-05-05 18:01 -19.14572 49.29991 42063 ft 475 kts 278°
2026-05-05 18:01 -19.13354 49.23117 42065 ft 475 kts 278°
2026-05-05 18:02 -19.12134 49.16249 42071 ft 475 kts 278°
2026-05-05 18:02 -19.10919 49.09421 42069 ft 475 kts 278°
2026-05-05 18:03 -19.09694 49.02555 42078 ft 475 kts 278°
2026-05-05 18:03 -19.08464 48.95676 42076 ft 475 kts 278°
2026-05-05 18:04 -19.07233 48.88808 42091 ft 475 kts 279°
2026-05-05 18:04 -19.06001 48.81947 42101 ft 475 kts 279°
2026-05-05 18:05 -19.04974 48.76244 41381 ft 474 kts 278°
2026-05-05 18:05 -19.04358 48.72827 40861 ft 471 kts 278°
2026-05-05 18:05 -19.03746 48.69434 40286 ft 469 kts 278°
2026-05-05 18:05 -19.03135 48.66049 39668 ft 469 kts 278°
2026-05-05 18:06 -19.02521 48.62656 39040 ft 469 kts 278°
2026-05-05 18:06 -19.02114 48.60406 38588 ft 469 kts 278°
2026-05-05 18:06 -19.01291 48.55862 37544 ft 471 kts 278°
2026-05-05 18:06 -19.00675 48.52462 36755 ft 473 kts 278°
2026-05-05 18:07 -19.00061 48.49079 35973 ft 475 kts 278°
2026-05-05 18:07 -18.99437 48.45648 35298 ft 476 kts 278°
2026-05-05 18:07 -18.98806 48.42182 34711 ft 473 kts 278°
2026-05-05 18:07 -18.98191 48.38811 34186 ft 470 kts 278°
2026-05-05 18:08 -18.97574 48.35427 33611 ft 467 kts 278°
2026-05-05 18:08 -18.96961 48.32073 33071 ft 463 kts 278°
2026-05-05 18:08 -18.96352 48.28743 32541 ft 459 kts 278°
2026-05-05 18:08 -18.95750 48.25453 32038 ft 455 kts 278°
2026-05-05 18:09 -18.95151 48.22180 31509 ft 451 kts 278°
2026-05-05 18:09 -18.94510 48.18940 31010 ft 448 kts 279°
2026-05-05 18:09 -18.93827 48.15733 30517 ft 445 kts 280°
2026-05-05 18:09 -18.93157 48.12593 29998 ft 441 kts 280°
2026-05-05 18:10 -18.92488 48.09437 29430 ft 438 kts 279°
2026-05-05 18:10 -18.91827 48.06304 28873 ft 434 kts 279°
2026-05-05 18:10 -18.91176 48.03210 28343 ft 431 kts 279°
2026-05-05 18:10 -18.90528 48.00127 27808 ft 427 kts 279°
2026-05-05 18:11 -18.89887 47.97077 27322 ft 423 kts 280°
2026-05-05 18:11 -18.89253 47.94062 26813 ft 420 kts 280°
2026-05-05 18:11 -18.88622 47.91061 26291 ft 417 kts 280°
2026-05-05 18:11 -18.87995 47.88081 25787 ft 414 kts 280°
2026-05-05 18:12 -18.87373 47.85131 25288 ft 411 kts 280°
2026-05-05 18:12 -18.86753 47.82192 24801 ft 408 kts 280°
2026-05-05 18:12 -18.86138 47.79277 24315 ft 405 kts 280°
2026-05-05 18:12 -18.85528 47.76385 23826 ft 403 kts 280°
2026-05-05 18:13 -18.84920 47.73508 23250 ft 400 kts 280°
2026-05-05 18:13 -18.84322 47.70677 22682 ft 398 kts 280°
2026-05-05 18:13 -18.83721 47.67836 22123 ft 395 kts 280°
2026-05-05 18:13 -18.83122 47.65008 21568 ft 393 kts 281°
2026-05-05 18:14 -18.82527 47.62204 21025 ft 390 kts 281°
2026-05-05 18:14 -18.81935 47.59412 20487 ft 388 kts 281°
2026-05-05 18:14 -18.81346 47.56639 19954 ft 386 kts 281°
2026-05-05 18:14 -18.80761 47.53881 19429 ft 384 kts 281°
2026-05-05 18:15 -18.80396 47.51112 18904 ft 380 kts 270°
2026-05-05 18:15 -18.80417 47.48338 18392 ft 377 kts 267°
2026-05-05 18:15 -18.80515 47.45580 17793 ft 375 kts 266°
2026-05-05 18:15 -18.80616 47.42832 17232 ft 373 kts 266°
2026-05-05 18:16 -18.80712 47.40109 16677 ft 371 kts 266°
2026-05-05 18:16 -18.80804 47.37394 16140 ft 369 kts 266°
2026-05-05 18:16 -18.80894 47.34706 15635 ft 366 kts 266°
2026-05-05 18:16 -18.80981 47.32054 15115 ft 363 kts 266°
2026-05-05 18:17 -18.81067 47.29394 14594 ft 361 kts 266°
2026-05-05 18:17 -18.81152 47.26754 14076 ft 359 kts 266°
2026-05-05 18:17 -18.81235 47.24130 13507 ft 356 kts 266°
2026-05-05 18:17 -18.81318 47.21523 12989 ft 353 kts 266°
2026-05-05 18:18 -18.81399 47.18949 12473 ft 348 kts 266°
2026-05-05 18:18 -18.81478 47.16421 12076 ft 341 kts 266°
2026-05-05 18:18 -18.81551 47.13986 11675 ft 321 kts 266°
2026-05-05 18:18 -18.81611 47.11701 11282 ft 302 kts 268°
2026-05-05 18:19 -18.81364 47.09563 10901 ft 288 kts 284°
2026-05-05 18:19 -18.80540 47.07687 10479 ft 278 kts 303°
2026-05-05 18:19 -18.79230 47.06243 10101 ft 269 kts 322°
2026-05-05 18:19 -18.77615 47.05337 9667 ft 261 kts 340°
2026-05-05 18:20 -18.75852 47.04998 9255 ft 257 kts 359°
2026-05-05 18:20 -18.74079 47.05225 8868 ft 257 kts 17°
2026-05-05 18:20 -18.72458 47.05994 8475 ft 256 kts 34°
2026-05-05 18:20 -18.71131 47.07229 8070 ft 255 kts 51°
2026-05-05 18:21 -18.70215 47.08812 7745 ft 253 kts 69°
2026-05-05 18:21 -18.69777 47.10589 7503 ft 254 kts 84°
2026-05-05 18:21 -18.69846 47.12441 7272 ft 253 kts 101°
2026-05-05 18:21 -18.70423 47.14190 7040 ft 252 kts 117°
2026-05-05 18:22 -18.71369 47.15751 6914 ft 252 kts 124°
2026-05-05 18:22 -18.72318 47.17137 6973 ft 252 kts 124°
2026-05-05 18:22 -18.73318 47.18594 6975 ft 250 kts 125°
2026-05-05 18:22 -18.74330 47.20084 6979 ft 250 kts 124°
2026-05-05 18:23 -18.75315 47.21597 6974 ft 250 kts 120°
2026-05-05 18:23 -18.75982 47.23283 6985 ft 245 kts 105°
2026-05-05 18:23 -18.76296 47.24975 6971 ft 230 kts 98°
2026-05-05 18:23 -18.76510 47.26583 6977 ft 214 kts 98°
2026-05-05 18:24 -18.76724 47.28080 6978 ft 200 kts 99°
2026-05-05 18:24 -18.76943 47.29518 6982 ft 196 kts 99°
2026-05-05 18:24 -18.77158 47.30892 7006 ft 185 kts 99°
2026-05-05 18:24 -18.77369 47.32236 6903 ft 185 kts 99°
2026-05-05 18:25 -18.77568 47.33577 6638 ft 185 kts 99°
2026-05-05 18:25 -18.77698 47.34467 6441 ft 184 kts 99°
2026-05-05 18:25 -18.77956 47.36202 6146 ft 170 kts 99°
2026-05-05 18:25 -18.78132 47.37384 5915 ft 160 kts 98°
2026-05-05 18:26 -18.78298 47.38500 5713 ft 148 kts 98°
2026-05-05 18:26 -18.78451 47.39533 5524 ft 138 kts 99°
2026-05-05 18:26 -18.78598 47.40520 5362 ft 135 kts 98°
2026-05-05 18:26 -18.78755 47.41507 5143 ft 136 kts 98°
2026-05-05 18:27 -18.78905 47.42482 4953 ft 135 kts 98°
2026-05-05 18:27 -18.79046 47.43469 4794 ft 136 kts 98°
2026-05-05 18:27 -18.79187 47.44457 4610 ft 137 kts 98°
2026-05-05 18:27 -18.79329 47.45447 4440 ft 136 kts 98°
2026-05-05 18:28 -18.79615 47.47355 4187 ft 114 kts 99°
2026-05-05 18:28 -18.79698 47.47906 4174 ft 38 kts 98°
2026-05-05 18:28 -18.79714 47.47995 4172 ft 2 kts 116°
2026-05-05 18:29 -18.79747 47.48090 4169 ft 23 kts 139°
2026-05-05 18:29 -18.79881 47.48058 4167 ft 22 kts 239°
2026-05-05 18:29 -18.79976 47.47988 4168 ft 0 kts 191°